| time (UTC) | temp F | wind direction | speed MPH | gust MPH | rain 1hr in | rain 24hr in | rain mn in | humidity % | barometer mb |
| 20260831193846 | 68 | 307 | 0.0 | 0.0 | 0.00 | 0.00 | 0.00 | 74 | 1021.4 |
| 20260831193037 | 68 | 307 | 0.0 | 0.0 | 0.00 | 0.00 | 0.00 | 73 | 1021.3 |
| 20260831192536 | 68 | 307 | 0.0 | 0.0 | 0.00 | 0.00 | 0.00 | 73 | 1021.2 |
| 20260831192036 | 68 | 307 | 0.0 | 0.0 | 0.00 | 0.00 | 0.00 | 72 | 1021.2 |
| 20260831191536 | 68 | 307 | 0.0 | 0.0 | 0.00 | 0.00 | 0.00 | 72 | 1021.1 |
| 20260831191036 | 69 | 307 | 0.0 | 0.0 | 0.00 | 0.00 | 0.00 | 71 | 1021.1 |
| 20260831190536 | 69 | 307 | 0.0 | 0.0 | 0.00 | 0.00 | 0.00 | 70 | 1021.0 |
| 20260831190034 | 69 | 307 | 0.0 | 0.0 | 0.00 | 0.00 | 0.00 | 69 | 1021.0 |
| 20260831185536 | 69 | 307 | 0.0 | 0.0 | 0.00 | 0.00 | 0.00 | 68 | 1021.0 |
| 20260831185034 | 70 | 307 | 0.0 | 0.0 | 0.00 | 0.00 | 0.00 | 68 | 1021.0 |
| 20260831184534 | 70 | 307 | 0.0 | 0.0 | 0.00 | 0.00 | 0.00 | 67 | 1020.9 |
| 20260831184035 | 70 | 307 | 0.0 | 0.0 | 0.00 | 0.00 | 0.00 | 67 | 1020.8 |
| 20260831183534 | 71 | 307 | 0.0 | 0.0 | 0.00 | 0.00 | 0.00 | 66 | 1020.8 |
| 20260831183035 | 71 | 307 | 0.0 | 0.0 | 0.00 | 0.00 | 0.00 | 66 | 1020.8 |
| 20260831182535 | 72 | 307 | 0.0 | 1.0 | 0.00 | 0.00 | 0.00 | 66 | 1020.9 |
| 20260831182346 | 72 | 307 | 0.0 | 1.0 | 0.00 | 0.00 | 0.00 | 65 | 1020.9 |
| 20260831181533 | 73 | 354 | 0.0 | 0.0 | 0.00 | 0.00 | 0.00 | 64 | 1020.8 |
| 20260831181036 | 73 | 354 | 0.0 | 1.0 | 0.00 | 0.00 | 0.00 | 64 | 1020.8 |
| 20260831180536 | 74 | 354 | 0.0 | 1.0 | 0.00 | 0.00 | 0.00 | 63 | 1020.9 |
| 20260831180034 | 74 | 354 | 0.0 | 1.0 | 0.00 | 0.00 | 0.00 | 63 | 1020.9 |
| 20260831175537 | 74 | 354 | 0.0 | 1.0 | 0.00 | 0.00 | 0.00 | 62 | 1020.9 |
| 20260831175032 | 75 | 210 | 0.0 | 1.0 | 0.00 | 0.00 | 0.00 | 61 | 1020.8 |
| 20260831174709 | 75 | 214 | 0.0 | 1.0 | 0.00 | 0.00 | 0.00 | 61 | 1020.8 |
| 20260831174633 | 75 | 214 | 0.0 | 1.0 | 0.00 | 0.00 | 0.00 | 63 | 1020.8 |
| 20260831173843 | 75 | 214 | 0.0 | 1.0 | 0.00 | 0.00 | 0.00 | 60 | 1020.9 |
| 20260831173347 | 75 | 148 | 0.0 | 1.0 | 0.00 | 0.00 | 0.00 | 60 | 1020.8 |
| 20260831172533 | 76 | 10 | 0.0 | 1.0 | 0.00 | 0.00 | 0.00 | 60 | 1020.8 |
| 20260831172033 | 76 | 0 | 0.0 | 0.0 | 0.00 | 0.00 | 0.00 | 61 | 1020.8 |
| 20260831171532 | 76 | 0 | 0.0 | 1.0 | 0.00 | 0.00 | 0.00 | 60 | 1020.8 |
| 20260831171343 | 76 | 0 | 0.0 | 1.0 | 0.00 | 0.00 | 0.00 | 60 | 1020.9 |
| 20260831170532 | 76 | 69 | 0.0 | 1.0 | 0.00 | 0.00 | 0.00 | 60 | 1020.9 |
| 20260831170344 | 76 | 87 | 0.0 | 1.0 | 0.00 | 0.00 | 0.00 | 60 | 1020.9 |
| 20260831165534 | 76 | 87 | 0.0 | 1.0 | 0.00 | 0.00 | 0.00 | 59 | 1020.9 |
| 20260831165033 | 76 | 69 | 0.0 | 1.0 | 0.00 | 0.00 | 0.00 | 60 | 1021.0 |
| 20260831164531 | 76 | 69 | 0.0 | 2.0 | 0.00 | 0.00 | 0.00 | 60 | 1021.0 |
| 20260831164031 | 76 | 69 | 0.0 | 3.0 | 0.00 | 0.00 | 0.00 | 61 | 1021.0 |
| 20260831163531 | 76 | 71 | 0.0 | 3.0 | 0.00 | 0.00 | 0.00 | 60 | 1021.0 |
| 20260831163031 | 76 | 66 | 0.0 | 6.0 | 0.00 | 0.00 | 0.00 | 60 | 1021.0 |
| 20260831162531 | 76 | 68 | 0.0 | 6.0 | 0.00 | 0.00 | 0.00 | 59 | 1021.1 |
| 20260831162031 | 76 | 100 | 2.0 | 5.0 | 0.00 | 0.00 | 0.00 | 58 | 1021.1 |
| 20260831161842 | 76 | 116 | 2.0 | 5.0 | 0.00 | 0.00 | 0.00 | 57 | 1021.1 |
| 20260831161030 | 77 | 52 | 1.0 | 3.0 | 0.00 | 0.00 | 0.00 | 57 | 1021.1 |
| 20260831160531 | 77 | 204 | 0.0 | 2.0 | 0.00 | 0.00 | 0.00 | 58 | 1021.2 |
| 20260831160030 | 77 | 106 | 0.0 | 2.0 | 0.00 | 0.00 | 0.00 | 58 | 1021.1 |
| 20260831155838 | 77 | 65 | 0.0 | 2.0 | 0.00 | 0.00 | 0.00 | 57 | 1021.2 |
| 20260831155033 | 78 | 99 | 0.0 | 0.0 | 0.00 | 0.00 | 0.00 | 57 | 1021.2 |
| 20260831154528 | 78 | 100 | 0.0 | 0.0 | 0.00 | 0.00 | 0.00 | 55 | 1021.2 |
| 20260831154031 | 78 | 268 | 0.0 | 0.0 | 0.00 | 0.00 | 0.00 | 54 | 1021.3 |
| 20260831153530 | 78 | 268 | 0.0 | 2.0 | 0.00 | 0.00 | 0.00 | 51 | 1021.3 |
| 20260831153032 | 78 | 269 | 0.0 | 2.0 | 0.00 | 0.00 | 0.00 | 53 | 1021.3 |
| 20260831152529 | 78 | 269 | 0.0 | 2.0 | 0.00 | 0.00 | 0.00 | 53 | 1021.3 |
| 20260831152338 | 78 | 61 | 0.0 | 2.0 | 0.00 | 0.00 | 0.00 | 54 | 1021.4 |
| 20260831151530 | 78 | 292 | 0.0 | 5.0 | 0.00 | 0.00 | 0.00 | 53 | 1021.4 |
| 20260831151341 | 78 | 283 | 0.0 | 5.0 | 0.00 | 0.00 | 0.00 | 50 | 1021.4 |
| 20260831150532 | 78 | 83 | 0.0 | 2.0 | 0.00 | 0.00 | 0.00 | 51 | 1021.4 |
| 20260831150029 | 78 | 234 | 0.0 | 3.0 | 0.00 | 0.00 | 0.00 | 51 | 1021.5 |
| 20260831145530 | 78 | 87 | 0.0 | 3.0 | 0.00 | 0.00 | 0.00 | 52 | 1021.5 |
| 20260831145343 | 78 | 289 | 1.0 | 3.0 | 0.00 | 0.00 | 0.00 | 51 | 1021.5 |
| 20260831144530 | 78 | 28 | 1.0 | 2.0 | 0.00 | 0.00 | 0.00 | 52 | 1021.6 |
| 20260831144029 | 79 | 0 | 0.0 | 3.0 | 0.00 | 0.00 | 0.00 | 52 | 1021.6 |
| 20260831143527 | 78 | 228 | 0.0 | 3.0 | 0.00 | 0.00 | 0.00 | 55 | 1021.6 |
| 20260831143157 | 77 | 276 | 0.0 | 2.0 | 0.00 | 0.00 | 0.00 | 53 | 1021.6 |
| 20260831143124 | 77 | 86 | 0.0 | 3.0 | 0.00 | 0.00 | 0.00 | 54 | 1021.5 |
| 20260831142029 | 77 | 319 | 1.0 | 2.0 | 0.00 | 0.00 | 0.00 | 54 | 1021.7 |
| 20260831141528 | 77 | 312 | 0.0 | 3.0 | 0.00 | 0.00 | 0.00 | 55 | 1021.7 |
| 20260831141032 | 76 | 321 | 0.0 | 3.0 | 0.00 | 0.00 | 0.00 | 56 | 1021.7 |
| 20260831140838 | 76 | 104 | 1.0 | 2.0 | 0.00 | 0.00 | 0.00 | 57 | 1021.8 |
| 20260831140032 | 76 | 307 | 1.0 | 2.0 | 0.00 | 0.00 | 0.00 | 56 | 1021.8 |
| 20260831135526 | 76 | 312 | 0.0 | 2.0 | 0.00 | 0.00 | 0.00 | 56 | 1021.8 |
| 20260831135026 | 77 | 303 | 0.0 | 5.0 | 0.00 | 0.00 | 0.00 | 56 | 1021.8 |
| 20260831134527 | 77 | 235 | 0.0 | 5.0 | 0.00 | 0.00 | 0.00 | 55 | 1021.7 |
| 20260831134335 | 78 | 130 | 0.0 | 2.0 | 0.00 | 0.00 | 0.00 | 56 | 1021.7 |
| 20260831133531 | 77 | 87 | 0.0 | 2.0 | 0.00 | 0.00 | 0.00 | 57 | 1021.8 |
| 20260831133029 | 77 | 334 | 0.0 | 2.0 | 0.00 | 0.00 | 0.00 | 58 | 1021.8 |
| 20260831132527 | 76 | 321 | 0.0 | 2.0 | 0.00 | 0.00 | 0.00 | 58 | 1021.9 |
| 20260831132029 | 76 | 272 | 0.0 | 3.0 | 0.00 | 0.00 | 0.00 | 58 | 1022.0 |
| 20260831131525 | 76 | 282 | 2.0 | 3.0 | 0.00 | 0.00 | 0.00 | 59 | 1022.0 |
| 20260831131332 | 75 | 257 | 0.0 | 4.0 | 0.00 | 0.00 | 0.00 | 59 | 1022.0 |
| 20260831130525 | 76 | 295 | 1.0 | 5.0 | 0.00 | 0.00 | 0.00 | 58 | 1022.0 |
| 20260831130028 | 76 | 298 | 2.0 | 5.0 | 0.00 | 0.00 | 0.00 | 59 | 1022.1 |
| 20260831125525 | 75 | 296 | 0.0 | 4.0 | 0.00 | 0.00 | 0.00 | 60 | 1022.0 |
| 20260831125027 | 75 | 278 | 1.0 | 6.0 | 0.00 | 0.00 | 0.00 | 61 | 1022.0 |
| 20260831124836 | 75 | 310 | 2.0 | 6.0 | 0.00 | 0.00 | 0.00 | 59 | 1022.1 |
| 20260831124026 | 75 | 314 | 0.0 | 4.0 | 0.00 | 0.00 | 0.00 | 62 | 1022.1 |
| 20260831123525 | 75 | 303 | 0.0 | 3.0 | 0.00 | 0.00 | 0.00 | 62 | 1022.0 |
| 20260831123025 | 75 | 39 | 1.0 | 3.0 | 0.00 | 0.00 | 0.00 | 60 | 1022.1 |
| 20260831122538 | 75 | 285 | 0.0 | 4.0 | 0.00 | 0.00 | 0.00 | 62 | 1022.0 |
| 20260831122024 | 75 | 303 | 1.0 | 4.0 | 0.00 | 0.00 | 0.00 | 61 | 1022.1 |
| 20260831121526 | 75 | 321 | 1.0 | 5.0 | 0.00 | 0.00 | 0.00 | 61 | 1022.1 |
| 20260831121028 | 75 | 295 | 2.0 | 6.0 | 0.00 | 0.00 | 0.00 | 60 | 1022.1 |
| 20260831120832 | 74 | 298 | 3.0 | 6.0 | 0.00 | 0.00 | 0.00 | 60 | 1022.1 |
| 20260831120025 | 74 | 269 | 0.0 | 4.0 | 0.00 | 0.00 | 0.00 | 62 | 1022.1 |
| 20260831115527 | 74 | 350 | 1.0 | 4.0 | 0.00 | 0.00 | 0.00 | 63 | 1022.1 |
| 20260831115024 | 74 | 288 | 1.0 | 4.0 | 0.00 | 0.00 | 0.00 | 63 | 1022.1 |
| 20260831114524 | 74 | 281 | 1.0 | 2.0 | 0.00 | 0.00 | 0.00 | 62 | 1022.1 |
| 20260831114036 | 74 | 348 | 0.0 | 3.0 | 0.00 | 0.00 | 0.00 | 63 | 1022.2 |
| 20260831113525 | 73 | 298 | 1.0 | 3.0 | 0.00 | 0.00 | 0.00 | 64 | 1022.1 |
| 20260831113024 | 73 | 305 | 2.0 | 3.0 | 0.00 | 0.00 | 0.00 | 64 | 1022.2 |
| 20260831112527 | 73 | 316 | 1.0 | 3.0 | 0.00 | 0.00 | 0.00 | 65 | 1022.2 |
| 20260831112335 | 73 | 276 | 1.0 | 3.0 | 0.00 | 0.00 | 0.00 | 66 | 1022.2 |
| 20260831111525 | 73 | 268 | 0.0 | 4.0 | 0.00 | 0.00 | 0.00 | 66 | 1022.2 |
| 20260831111025 | 73 | 302 | 1.0 | 4.0 | 0.00 | 0.00 | 0.00 | 67 | 1022.2 |
| 20260831110522 | 72 | 306 | 0.0 | 4.0 | 0.00 | 0.00 | 0.00 | 67 | 1022.2 |
| 20260831110023 | 73 | 321 | 1.0 | 4.0 | 0.00 | 0.00 | 0.00 | 67 | 1022.2 |
| 20260831105524 | 73 | 288 | 0.0 | 4.0 | 0.00 | 0.00 | 0.00 | 68 | 1022.2 |
| 20260831105153 | 72 | 309 | 0.0 | 5.0 | 0.00 | 0.00 | 0.00 | 67 | 1022.4 |
| 20260831105120 | 72 | 299 | 0.0 | 4.0 | 0.00 | 0.00 | 0.00 | 67 | 1022.3 |
| 20260831104023 | 72 | 305 | 2.0 | 5.0 | 0.00 | 0.00 | 0.00 | 67 | 1022.3 |
| 20260831103524 | 72 | 293 | 0.0 | 4.0 | 0.00 | 0.00 | 0.00 | 68 | 1022.4 |
| 20260831103025 | 72 | 302 | 1.0 | 4.0 | 0.00 | 0.00 | 0.00 | 68 | 1022.3 |
| 20260831102522 | 72 | 281 | 0.0 | 4.0 | 0.00 | 0.00 | 0.00 | 68 | 1022.3 |
| 20260831102022 | 72 | 326 | 0.0 | 5.0 | 0.00 | 0.00 | 0.00 | 69 | 1022.3 |
| 20260831101842 | 72 | 275 | 1.0 | 5.0 | 0.00 | 0.00 | 0.00 | 70 | 1022.3 |
| 20260831101023 | 72 | 278 | 0.0 | 5.0 | 0.00 | 0.00 | 0.00 | 71 | 1022.3 |
| 20260831100524 | 71 | 282 | 1.0 | 5.0 | 0.00 | 0.00 | 0.00 | 71 | 1022.3 |
| 20260831100022 | 71 | 295 | 0.0 | 4.0 | 0.00 | 0.00 | 0.00 | 71 | 1022.3 |
| 20260831095521 | 71 | 292 | 2.0 | 4.0 | 0.00 | 0.00 | 0.00 | 71 | 1022.3 |
| 20260831095024 | 71 | 316 | 2.0 | 4.0 | 0.00 | 0.00 | 0.00 | 71 | 1022.2 |
| 20260831094521 | 71 | 72 | 0.0 | 2.0 | 0.00 | 0.00 | 0.00 | 72 | 1022.2 |
| 20260831094024 | 71 | 310 | 0.0 | 2.0 | 0.00 | 0.00 | 0.00 | 72 | 1022.3 |
| 20260831093521 | 71 | 310 | 0.0 | 3.0 | 0.00 | 0.00 | 0.00 | 73 | 1022.3 |
| 20260831093021 | 71 | 309 | 0.0 | 4.0 | 0.00 | 0.00 | 0.00 | 72 | 1022.3 |
| 20260831092833 | 71 | 275 | 2.0 | 4.0 | 0.00 | 0.00 | 0.00 | 73 | 1022.3 |
| 20260831092020 | 71 | 279 | 0.0 | 3.0 | 0.00 | 0.00 | 0.00 | 74 | 1022.3 |
| 20260831091522 | 70 | 293 | 1.0 | 5.0 | 0.00 | 0.00 | 0.00 | 74 | 1022.3 |
| 20260831091021 | 70 | 278 | 1.0 | 6.0 | 0.00 | 0.00 | 0.00 | 74 | 1022.3 |
| 20260831090522 | 70 | 276 | 1.0 | 6.0 | 0.00 | 0.00 | 0.00 | 74 | 1022.3 |
| 20260831090020 | 70 | 292 | 0.0 | 3.0 | 0.00 | 0.00 | 0.00 | 74 | 1022.3 |
| 20260831085521 | 70 | 265 | 0.0 | 3.0 | 0.00 | 0.00 | 0.00 | 75 | 1022.2 |
| 20260831085021 | 70 | 313 | 0.0 | 3.0 | 0.00 | 0.00 | 0.00 | 76 | 1022.1 |
| 20260831084518 | 70 | 288 | 0.0 | 2.0 | 0.00 | 0.00 | 0.00 | 76 | 1022.1 |
| 20260831084022 | 70 | 262 | 0.0 | 4.0 | 0.00 | 0.00 | 0.00 | 77 | 1022.1 |
| 20260831083520 | 69 | 289 | 0.0 | 4.0 | 0.00 | 0.00 | 0.00 | 77 | 1022.0 |
| 20260831083022 | 69 | 268 | 2.0 | 5.0 | 0.00 | 0.00 | 0.00 | 76 | 1022.1 |
| 20260831082519 | 69 | 281 | 1.0 | 5.0 | 0.00 | 0.00 | 0.00 | 77 | 1022.1 |
| 20260831082023 | 69 | 217 | 1.0 | 4.0 | 0.00 | 0.00 | 0.00 | 76 | 1022.0 |
| 20260831081520 | 69 | 290 | 1.0 | 4.0 | 0.00 | 0.00 | 0.00 | 78 | 1022.0 |
| 20260831081020 | 69 | 285 | 1.0 | 3.0 | 0.00 | 0.00 | 0.00 | 78 | 1021.9 |
| 20260831080831 | 69 | 299 | 0.0 | 4.0 | 0.00 | 0.00 | 0.00 | 79 | 1021.9 |
| 20260831080020 | 69 | 279 | 0.0 | 4.0 | 0.00 | 0.00 | 0.00 | 79 | 1022.0 |
| 20260831075519 | 69 | 268 | 0.0 | 2.0 | 0.00 | 0.00 | 0.00 | 80 | 1021.9 |
| 20260831075334 | 68 | 268 | 0.0 | 3.0 | 0.00 | 0.00 | 0.00 | 80 | 1021.8 |
| 20260831074521 | 68 | 285 | 1.0 | 3.0 | 0.00 | 0.00 | 0.00 | 80 | 1021.8 |
| 20260831074018 | 68 | 285 | 0.0 | 4.0 | 0.00 | 0.00 | 0.00 | 80 | 1021.8 |
| 20260831073518 | 68 | 283 | 0.0 | 4.0 | 0.00 | 0.00 | 0.00 | 80 | 1021.7 |
| 20260831073326 | 68 | 293 | 0.0 | 2.0 | 0.00 | 0.00 | 0.00 | 80 | 1021.8 |
| 20260831072517 | 68 | 296 | 1.0 | 2.0 | 0.00 | 0.00 | 0.00 | 80 | 1021.7 |
| 20260831072017 | 68 | 279 | 0.0 | 1.0 | 0.00 | 0.00 | 0.00 | 80 | 1021.7 |
| 20260831071517 | 68 | 274 | 0.0 | 1.0 | 0.00 | 0.00 | 0.00 | 81 | 1021.6 |
| 20260831071018 | 68 | 271 | 0.0 | 1.0 | 0.00 | 0.00 | 0.00 | 81 | 1021.6 |
| 20260831070518 | 67 | 271 | 0.0 | 2.0 | 0.00 | 0.00 | 0.00 | 81 | 1021.5 |
| 20260831070018 | 68 | 212 | 0.0 | 2.0 | 0.00 | 0.00 | 0.00 | 81 | 1021.5 |
| 20260831065518 | 67 | 282 | 0.0 | 1.0 | 0.00 | 0.00 | 0.00 | 81 | 1021.4 |
| 20260831065141 | 67 | 307 | 0.0 | 1.0 | 0.00 | 0.00 | 0.00 | 81 | 1021.4 |
| 20260831065111 | 67 | 307 | 0.0 | 1.0 | 0.00 | 0.00 | 0.00 | 81 | 1021.4 |
| 20260831064014 | 67 | 307 | 0.0 | 1.0 | 0.00 | 0.00 | 0.00 | 80 | 1021.5 |
| 20260831063515 | 67 | 278 | 0.0 | 1.0 | 0.00 | 0.00 | 0.00 | 80 | 1021.3 |
| 20260831063017 | 67 | 278 | 0.0 | 1.0 | 0.00 | 0.00 | 0.00 | 80 | 1021.3 |
| 20260831062520 | 67 | 278 | 0.0 | 1.0 | 0.00 | 0.00 | 0.00 | 80 | 1021.4 |
| 20260831062021 | 67 | 278 | 0.0 | 1.0 | 0.00 | 0.00 | 0.00 | 80 | 1021.3 |
| 20260831061518 | 67 | 278 | 0.0 | 1.0 | 0.00 | 0.00 | 0.00 | 80 | 1021.2 |
| 20260831061029 | 67 | 248 | 0.0 | 1.0 | 0.00 | 0.00 | 0.00 | 80 | 1021.3 |
| 20260831060516 | 67 | 290 | 0.0 | 0.0 | 0.00 | 0.00 | 0.00 | 80 | 1021.2 |
| 20260831060017 | 67 | 290 | 0.0 | 0.0 | 0.00 | 0.00 | 0.00 | 80 | 1021.2 |
| 20260831055513 | 66 | 290 | 0.0 | 0.0 | 0.00 | 0.00 | 0.00 | 80 | 1021.1 |
| 20260831055017 | 66 | 290 | 0.0 | 0.0 | 0.00 | 0.00 | 0.00 | 80 | 1021.1 |
| 20260831054516 | 66 | 290 | 0.0 | 0.0 | 0.00 | 0.00 | 0.00 | 80 | 1021.0 |
| 20260831054031 | 66 | 290 | 0.0 | 1.0 | 0.00 | 0.00 | 0.00 | 80 | 1021.1 |
| 20260831053515 | 66 | 290 | 0.0 | 1.0 | 0.00 | 0.00 | 0.00 | 80 | 1021.1 |
| 20260831053016 | 66 | 290 | 0.0 | 1.0 | 0.00 | 0.00 | 0.00 | 80 | 1021.0 |
| 20260831052523 | 66 | 290 | 0.0 | 1.0 | 0.00 | 0.00 | 0.00 | 80 | 1020.9 |
| 20260831052016 | 66 | 290 | 0.0 | 1.0 | 0.00 | 0.00 | 0.00 | 80 | 1020.9 |
| 20260831051828 | 66 | 290 | 0.0 | 1.0 | 0.00 | 0.00 | 0.00 | 79 | 1020.9 |
| 20260831051015 | 66 | 292 | 0.0 | 0.0 | 0.00 | 0.00 | 0.00 | 79 | 1020.9 |
| 20260831050515 | 66 | 292 | 0.0 | 0.0 | 0.00 | 0.00 | 0.00 | 79 | 1020.9 |
| 20260831050111 | 67 | 292 | 0.0 | 0.0 | 0.00 | 0.00 | 0.00 | 79 | 1020.8 |
| 20260831045018 | 67 | 292 | 0.0 | 0.0 | 0.00 | 0.00 | 0.00 | 79 | 1020.8 |
| 20260831044515 | 67 | 292 | 0.0 | 3.0 | 0.00 | 0.00 | 0.00 | 79 | 1020.7 |
| 20260831044017 | 67 | 290 | 0.0 | 3.0 | 0.00 | 0.00 | 0.00 | 79 | 1020.7 |
| 20260831043514 | 67 | 293 | 0.0 | 1.0 | 0.00 | 0.00 | 0.00 | 79 | 1020.8 |
| 20260831043014 | 67 | 251 | 0.0 | 2.0 | 0.00 | 0.00 | 0.00 | 78 | 1020.9 |
| 20260831042513 | 67 | 285 | 0.0 | 2.0 | 0.00 | 0.00 | 0.00 | 78 | 1020.8 |
| 20260831042240 | 67 | 283 | 0.0 | 3.0 | 0.00 | 0.00 | 0.00 | 78 | 1020.8 |
| 20260831042234 | 67 | 283 | 0.0 | 3.0 | 0.00 | 0.00 | 0.00 | 77 | 1020.7 |
| 20260831042148 | 67 | 276 | 0.0 | 2.0 | 0.00 | 0.00 | 0.00 | 78 | 1020.7 |
| 20260831040821 | 67 | 286 | 0.0 | 2.0 | 0.00 | 0.00 | 0.00 | 77 | 1020.8 |
| 20260831040013 | 67 | 310 | 0.0 | 4.0 | 0.00 | 0.00 | 0.00 | 77 | 1020.8 |
| 20260831035823 | 67 | 282 | 0.0 | 4.0 | 0.00 | 0.00 | 0.00 | 77 | 1020.9 |
| 20260831035013 | 67 | 302 | 0.0 | 3.0 | 0.00 | 0.00 | 0.00 | 77 | 1020.9 |
| 20260831034512 | 67 | 278 | 1.0 | 3.0 | 0.00 | 0.00 | 0.00 | 77 | 1020.9 |
| 20260831034013 | 67 | 302 | 0.0 | 3.0 | 0.00 | 0.00 | 0.00 | 77 | 1021.0 |
| 20260831033513 | 67 | 303 | 1.0 | 3.0 | 0.00 | 0.00 | 0.00 | 77 | 1021.0 |
| 20260831033150 | 68 | 292 | 1.0 | 4.0 | 0.00 | 0.00 | 0.00 | 78 | 1021.0 |
| 20260831033116 | 67 | 296 | 0.0 | 4.0 | 0.00 | 0.00 | 0.00 | 78 | 1020.9 |
| 20260831032012 | 68 | 309 | 1.0 | 2.0 | 0.00 | 0.00 | 0.00 | 78 | 1020.9 |
| 20260831031513 | 68 | 307 | 0.0 | 3.0 | 0.00 | 0.00 | 0.00 | 78 | 1021.0 |
| 20260831031324 | 68 | 298 | 0.0 | 3.0 | 0.00 | 0.00 | 0.00 | 79 | 1021.0 |
| 20260831030522 | 68 | 285 | 0.0 | 2.0 | 0.00 | 0.00 | 0.00 | 78 | 1020.9 |
| 20260831030011 | 68 | 295 | 0.0 | 3.0 | 0.00 | 0.00 | 0.00 | 78 | 1021.0 |
| 20260831025819 | 68 | 289 | 0.0 | 3.0 | 0.00 | 0.00 | 0.00 | 79 | 1021.0 |
| 20260831025013 | 68 | 285 | 0.0 | 2.0 | 0.00 | 0.00 | 0.00 | 79 | 1021.0 |
| 20260831024828 | 68 | 286 | 0.0 | 1.0 | 0.00 | 0.00 | 0.00 | 78 | 1021.0 |
| 20260831024139 | 68 | 303 | 0.0 | 1.0 | 0.00 | 0.00 | 0.00 | 78 | 1020.9 |
| 20260831024109 | 68 | 302 | 0.0 | 1.0 | 0.00 | 0.00 | 0.00 | 78 | 1021.0 |
| 20260831023011 | 68 | 282 | 0.0 | 1.0 | 0.00 | 0.00 | 0.00 | 79 | 1021.0 |
| 20260831022512 | 68 | 282 | 0.0 | 1.0 | 0.00 | 0.00 | 0.00 | 79 | 1020.9 |
| 20260831022011 | 68 | 282 | 0.0 | 1.0 | 0.00 | 0.00 | 0.00 | 79 | 1020.9 |
| 20260831021512 | 68 | 305 | 0.0 | 2.0 | 0.00 | 0.00 | 0.00 | 79 | 1020.9 |
| 20260831021012 | 68 | 310 | 0.0 | 2.0 | 0.00 | 0.00 | 0.00 | 79 | 1020.9 |
| 20260831020512 | 68 | 296 | 0.0 | 4.0 | 0.00 | 0.00 | 0.00 | 78 | 1020.9 |
| 20260831020010 | 68 | 286 | 1.0 | 4.0 | 0.00 | 0.00 | 0.00 | 78 | 1020.9 |
| 20260831015512 | 68 | 295 | 0.0 | 2.0 | 0.00 | 0.00 | 0.00 | 78 | 1020.9 |
| 20260831015010 | 69 | 309 | 0.0 | 3.0 | 0.00 | 0.00 | 0.00 | 78 | 1020.8 |
| 20260831014514 | 69 | 289 | 0.0 | 3.0 | 0.00 | 0.00 | 0.00 | 78 | 1020.8 |
| 20260831014011 | 69 | 292 | 1.0 | 4.0 | 0.00 | 0.00 | 0.00 | 78 | 1020.8 |
| 20260831013508 | 69 | 282 | 1.0 | 4.0 | 0.00 | 0.00 | 0.00 | 77 | 1020.9 |
| 20260831013013 | 69 | 295 | 2.0 | 3.0 | 0.00 | 0.00 | 0.00 | 78 | 1020.9 |
| 20260831012510 | 69 | 299 | 1.0 | 4.0 | 0.00 | 0.00 | 0.00 | 79 | 1020.9 |
| 20260831012320 | 69 | 296 | 1.0 | 4.0 | 0.00 | 0.00 | 0.00 | 79 | 1020.9 |
| 20260831011509 | 69 | 283 | 1.0 | 4.0 | 0.00 | 0.00 | 0.00 | 79 | 1020.9 |
| 20260831011010 | 69 | 278 | 0.0 | 1.0 | 0.00 | 0.00 | 0.00 | 79 | 1020.8 |
| 20260831010512 | 69 | 278 | 0.0 | 2.0 | 0.00 | 0.00 | 0.00 | 79 | 1020.8 |
| 20260831010011 | 69 | 278 | 0.0 | 2.0 | 0.00 | 0.00 | 0.00 | 79 | 1020.8 |
| 20260831005509 | 69 | 276 | 0.0 | 0.0 | 0.00 | 0.00 | 0.00 | 79 | 1020.8 |
| 20260831005010 | 69 | 276 | 0.0 | 0.0 | 0.00 | 0.00 | 0.00 | 79 | 1020.7 |
| 20260831004510 | 69 | 279 | 0.0 | 0.0 | 0.00 | 0.00 | 0.00 | 79 | 1020.6 |
| 20260831004009 | 69 | 279 | 0.0 | 1.0 | 0.00 | 0.00 | 0.00 | 79 | 1020.7 |
| 20260831003512 | 69 | 279 | 0.0 | 2.0 | 0.00 | 0.00 | 0.00 | 79 | 1020.7 |
| 20260831003009 | 69 | 272 | 0.0 | 2.0 | 0.00 | 0.00 | 0.00 | 78 | 1020.6 |
| 20260831002508 | 69 | 271 | 0.0 | 5.0 | 0.00 | 0.00 | 0.00 | 78 | 1020.6 |
| 20260831002009 | 69 | 292 | 2.0 | 5.0 | 0.00 | 0.00 | 0.00 | 78 | 1020.6 |
| 20260831001509 | 69 | 282 | 0.0 | 4.0 | 0.00 | 0.00 | 0.00 | 78 | 1020.6 |
| 20260831001010 | 69 | 276 | 0.0 | 4.0 | 0.00 | 0.00 | 0.00 | 78 | 1020.6 |
| 20260831000507 | 69 | 274 | 0.0 | 2.0 | 0.00 | 0.00 | 0.00 | 79 | 1020.7 |
| 20260831000012 | 69 | 272 | 1.0 | 3.0 | 0.00 | 0.00 | 0.00 | 79 | 1020.6 |
| 20260830235507 | 70 | 271 | 0.0 | 5.0 | 0.00 | 0.00 | 0.00 | 79 | 1020.7 |
| 20260830235322 | 70 | 310 | 0.0 | 5.0 | 0.00 | 0.00 | 0.00 | 79 | 1020.7 |
| 20260830234507 | 70 | 289 | 1.0 | 4.0 | 0.00 | 0.00 | 0.00 | 79 | 1020.7 |
| 20260830234009 | 70 | 314 | 1.0 | 2.0 | 0.00 | 0.00 | 0.00 | 80 | 1020.7 |
| 20260830233817 | 70 | 268 | 0.0 | 2.0 | 0.00 | 0.00 | 0.00 | 79 | 1020.7 |
| 20260830233318 | 70 | 274 | 1.0 | 2.0 | 0.00 | 0.00 | 0.00 | 79 | 1020.7 |
| 20260830232507 | 70 | 279 | 0.0 | 0.0 | 0.00 | 0.00 | 0.00 | 79 | 1020.7 |
| 20260830232006 | 70 | 279 | 0.0 | 0.0 | 0.00 | 0.00 | 0.00 | 79 | 1020.7 |
| 20260830231511 | 70 | 279 | 0.0 | 1.0 | 0.00 | 0.00 | 0.00 | 79 | 1020.8 |
| 20260830231019 | 70 | 279 | 0.0 | 2.0 | 0.00 | 0.00 | 0.00 | 79 | 1020.8 |
| 20260830230519 | 70 | 285 | 0.0 | 2.0 | 0.00 | 0.00 | 0.00 | 79 | 1020.7 |
| 20260830230007 | 70 | 266 | 0.0 | 1.0 | 0.00 | 0.00 | 0.00 | 79 | 1020.6 |
| 20260830225506 | 70 | 286 | 0.0 | 3.0 | 0.00 | 0.00 | 0.00 | 79 | 1020.6 |
| 20260830225314 | 70 | 286 | 0.0 | 3.0 | 0.00 | 0.00 | 0.00 | 79 | 1020.6 |
| 20260830224506 | 70 | 285 | 0.0 | 1.0 | 0.00 | 0.00 | 0.00 | 78 | 1020.6 |
| 20260830224005 | 70 | 286 | 0.0 | 1.0 | 0.00 | 0.00 | 0.00 | 78 | 1020.6 |
| 20260830223509 | 70 | 286 | 0.0 | 1.0 | 0.00 | 0.00 | 0.00 | 78 | 1020.5 |
| 20260830223317 | 70 | 266 | 0.0 | 1.0 | 0.00 | 0.00 | 0.00 | 78 | 1020.5 |
| 20260830222505 | 70 | 266 | 0.0 | 1.0 | 0.00 | 0.00 | 0.00 | 78 | 1020.5 |
| 20260830222006 | 71 | 248 | 0.0 | 1.0 | 0.00 | 0.00 | 0.00 | 78 | 1020.5 |
| 20260830221506 | 71 | 247 | 0.0 | 3.0 | 0.00 | 0.00 | 0.00 | 78 | 1020.3 |
| 20260830221006 | 71 | 271 | 0.0 | 3.0 | 0.00 | 0.00 | 0.00 | 78 | 1020.2 |
| 20260830220506 | 71 | 290 | 0.0 | 3.0 | 0.00 | 0.00 | 0.00 | 77 | 1020.2 |
| 20260830220005 | 71 | 285 | 1.0 | 2.0 | 0.00 | 0.00 | 0.00 | 77 | 1020.0 |
| 20260830215506 | 71 | 296 | 0.0 | 2.0 | 0.00 | 0.00 | 0.00 | 77 | 1020.0 |
| 20260830215005 | 71 | 281 | 0.0 | 4.0 | 0.00 | 0.00 | 0.00 | 77 | 1019.9 |
| 20260830214505 | 71 | 312 | 1.0 | 4.0 | 0.00 | 0.00 | 0.00 | 77 | 1019.9 |
| 20260830214004 | 71 | 283 | 0.0 | 9.0 | 0.00 | 0.00 | 0.00 | 77 | 1019.8 |
| 20260830213505 | 71 | 296 | 2.0 | 9.0 | 0.00 | 0.00 | 0.00 | 77 | 1019.8 |
| 20260830213006 | 71 | 323 | 1.0 | 9.0 | 0.00 | 0.00 | 0.00 | 76 | 1019.7 |
| 20260830212502 | 71 | 314 | 2.0 | 9.0 | 0.00 | 0.00 | 0.00 | 76 | 1019.6 |
| 20260830212003 | 71 | 281 | 1.0 | 6.0 | 0.00 | 0.00 | 0.00 | 76 | 1019.6 |
| 20260830211503 | 72 | 276 | 1.0 | 5.0 | 0.00 | 0.00 | 0.00 | 76 | 1019.5 |
| 20260830211006 | 72 | 266 | 0.0 | 7.0 | 0.00 | 0.00 | 0.00 | 76 | 1019.4 |
| 20260830210503 | 72 | 265 | 2.0 | 7.0 | 0.00 | 0.00 | 0.00 | 76 | 1019.3 |
| 20260830210004 | 72 | 274 | 2.0 | 4.0 | 0.00 | 0.00 | 0.00 | 76 | 1019.2 |
| 20260830205502 | 72 | 312 | 1.0 | 5.0 | 0.00 | 0.00 | 0.00 | 76 | 1019.0 |
| 20260830205003 | 72 | 305 | 1.0 | 7.0 | 0.00 | 0.00 | 0.00 | 75 | 1019.0 |
| 20260830204504 | 73 | 286 | 1.0 | 7.0 | 0.00 | 0.00 | 0.00 | 75 | 1018.9 |
| 20260830204001 | 73 | 265 | 2.0 | 6.0 | 0.00 | 0.00 | 0.00 | 75 | 1018.9 |
| 20260830203503 | 73 | 329 | 1.0 | 4.0 | 0.00 | 0.00 | 0.00 | 75 | 1018.8 |
| 20260830203004 | 73 | 45 | 0.0 | 12.0 | 0.00 | 0.00 | 0.00 | 75 | 1018.6 |
| 20260830202817 | 73 | 281 | 2.0 | 12.0 | 0.00 | 0.00 | 0.00 | 74 | 1018.6 |
| 20260830202307 | 74 | 326 | 2.0 | 13.0 | 0.00 | 0.00 | 0.00 | 74 | 1018.5 |
| 20260830201501 | 74 | 111 | 2.0 | 13.0 | 0.00 | 0.00 | 0.00 | 73 | 1018.4 |
| 20260830201003 | 74 | 75 | 2.0 | 6.0 | 0.00 | 0.00 | 0.00 | 73 | 1018.2 |
| 20260830200500 | 75 | 259 | 0.0 | 6.0 | 0.00 | 0.00 | 0.00 | 73 | 1018.2 |
| 20260830200001 | 75 | 314 | 1.0 | 6.0 | 0.00 | 0.00 | 0.00 | 73 | 1018.1 |
| 20260830195500 | 75 | 305 | 3.0 | 13.0 | 0.00 | 0.00 | 0.00 | 72 | 1017.9 |
| 20260830195015 | 75 | 293 | 3.0 | 13.0 | 0.00 | 0.00 | 0.00 | 72 | 1017.9 |
| 20260830194504 | 76 | 292 | 2.0 | 10.0 | 0.00 | 0.00 | 0.00 | 71 | 1017.8 |